星链-30929 (STARLINK-30929 )

导读

STARLINK-30929是美国SpaceX星链星座中的卫星,于2023年11月20日发射升空,属于星链项目低轨互联网卫星组网的组成部分。星链计划旨在构建全球覆盖的卫星互联网星座,该卫星发射后加入星座运行,为全球尤其是偏远地区提供宽带网络接入服务,推动太空互联网基础设施的搭建。

基本信息
目录编号:
58386
目录名称:
STARLINK-30929
国际标识:
2023-178N
轨道中心:
EARTH
卫星名称:
星链-30929
卫星全名:
星链-30929 (STARLINK-30929 )
卫星状态:
在轨 (已飞行941 天)
发射日期:
2023-11-20 UTC
国别 :
美国 (US)
星等 :
--
轨道信息
数据来源 国际轨道数据
星历时间: 2026-06-17T20:50:18+0800
20小时前
查看轨道信息
半长轴: 6840.856km
偏心率: 0.0001617
轨道倾角: 53.161°
近地点辐角 110.405°
升交点赤经 256.007°
平近点角 249.713°
近地点: 461.612km
远地点: 463.826km
周期: 93.848分钟
每日圈数: 15.343949
详细信息
固有亮度:
5
最大亮度:
0.3
卫星平台:
Starlink v2.0 mini
覆盖范围:
全球
运营商:
太空探索技术公司
运营商所在国:
美国
制造商(研发单位):
太空探索技术公司
制造商所在国:
美国
使用方式:
暂无
卫星简介
星链(Starlink)计划是由太空探索技术公司(SpaceX)提出的一个巨型低轨卫星互联网星座项目,计划在2019年至2024年间在太空搭建由约1.2万颗卫星组成的“星链”网络,其中1584颗将部署在地球上空550千米处的近地轨道,并从2020年开始工作。该卫星仍在工作。
2D轨道图
3D轨道图
轨道高度分析图
轨道倾角分析图
轨道综合分析图
查看轨道综合分析图